Total_Precipitation_Accumulation
0.06 0.07 0.04 0.02 0.02 0.01 0.01 0.00 0.00 0.00 0.00 0.00 0.00 0.00 0.00 0.00 0.00 0.00 0.00 0.00 0.01 0.01 0.02 0.02 0.02 0.02 0.03 0.04 0.04 0.04 0.03 0.03 0.03 0.02 0.02 0.01 0.01 0.01 0.01 0.01 0.01 0.01 0.01
0.06 0.06 0.03 0.02 0.01 0.00 0.01 0.00 0.00 0.00 0.00 0.00 0.00 0.00 0.00 0.00 0.00 0.00 0.00 0.01 0.02 0.02 0.04 0.05 0.05 0.05 0.05 0.06 0.06 0.06 0.06 0.06 0.06 0.07 0.06 0.05 0.04 0.04 0.04 0.04 0.04 0.03 0.02
0.01 0.01 0.01 0.01 0.00 0.00 0.00 0.00 0.00 0.00 0.00 0.00 0.00 0.00 0.00 0.00 0.00 0.01 0.01 0.02 0.03 0.05 0.05 0.06 0.07 0.07 0.06 0.06 0.07 0.07 0.07 0.08 0.09 0.09 0.09 0.10 0.10 0.09 0.09 0.09 0.08 0.07 0.06
0.00 0.00 0.01 0.01 0.00 0.00 0.00 0.00 0.01 0.01 0.01 0.01 0.01 0.01 0.01 0.02 0.03 0.04 0.04 0.05 0.06 0.07 0.08 0.08 0.08 0.08 0.06 0.05 0.05 0.05 0.07 0.07 0.09 0.10 0.11 0.12 0.13 0.14 0.14 0.14 0.14 0.12 0.10
0.00 0.00 0.01 0.01 0.00 0.00 0.00 0.01 0.02 0.02 0.02 0.02 0.01 0.02 0.03 0.03 0.05 0.07 0.08 0.09 0.09 0.07 0.06 0.06 0.06 0.05 0.05 0.05 0.04 0.04 0.05 0.06 0.09 0.10 0.11 0.12 0.15 0.17 0.17 0.17 0.19 0.18 0.16
0.02 0.02 0.02 0.01 0.01 0.01 0.01 0.01 0.01 0.01 0.00 0.00 0.00 0.01 0.02 0.03 0.05 0.05 0.05 0.05 0.04 0.03 0.03 0.02 0.02 0.03 0.03 0.03 0.03 0.03 0.03 0.04 0.06 0.08 0.08 0.10 0.14 0.16 0.16 0.16 0.17 0.18 0.19
0.03 0.03 0.02 0.02 0.02 0.02 0.01 0.01 0.01 0.00 0.00 0.00 0.00 0.00 0.01 0.01 0.01 0.01 0.01 0.01 0.01 0.01 0.01 0.00 0.00 0.00 0.00 0.01 0.01 0.01 0.02 0.03 0.04 0.08 0.09 0.12 0.14 0.16 0.17 0.16 0.16 0.16 0.17
0.06 0.05 0.04 0.04 0.03 0.02 0.02 0.01 0.00 0.00 0.00 0.00 0.00 0.00 0.00 0.00 0.00 0.00 0.00 0.00 0.00 0.00 0.00 0.00 0.00 0.00 0.00 0.00 0.00 0.00 0.01 0.01 0.02 0.06 0.11 0.18 0.21 0.22 0.21 0.21 0.20 0.20 0.19
0.10 0.08 0.06 0.04 0.03 0.01 0.00 0.00 0.00 0.00 0.00 0.00 0.00 0.00 0.00 0.00 0.00 0.00 0.00 0.00 0.00 0.00 0.00 0.00 0.00 0.00 0.00 0.00 0.00 0.01 0.01 0.01 0.02 0.03 0.08 0.16 0.21 0.22 0.22 0.22 0.22 0.24 0.24
0.09 0.06 0.04 0.02 0.00 0.00 0.00 0.00 0.00 0.00 0.00 0.00 0.00 0.00 0.00 0.01 0.01 0.01 0.00 0.00 0.00 0.00 0.00 0.00 0.00 0.00 0.00 0.00 0.02 0.03 0.02 0.02 0.02 0.03 0.04 0.07 0.10 0.13 0.18 0.24 0.27 0.28 0.28
0.05 0.03 0.01 0.01 0.00 0.00 0.00 0.00 0.00 0.00 0.00 0.00 0.00 0.00 0.00 0.00 0.01 0.01 0.01 0.00 0.00 0.00 0.00 0.00 0.00 0.00 0.00 0.01 0.04 0.06 0.05 0.03 0.02 0.03 0.04 0.07 0.08 0.10 0.14 0.18 0.22 0.25 0.26
0.02 0.01 0.01 0.00 0.00 0.00 0.00 0.00 0.00 0.00 0.00 0.00 0.00 0.00 0.00 0.00 0.00 0.01 0.01 0.01 0.01 0.00 0.00 0.00 0.00 0.00 0.00 0.01 0.02 0.03 0.04 0.04 0.04 0.03 0.03 0.04 0.05 0.06 0.08 0.11 0.15 0.19 0.23
0.01 0.01 0.00 0.00 0.00 0.00 0.00 0.00 0.00 0.00 0.00 0.00 0.00 0.00 0.00 0.00 0.01 0.01 0.01 0.02 0.02 0.01 0.00 0.00 0.00 0.00 0.00 0.00 0.01 0.01 0.04 0.05 0.04 0.03 0.02 0.02 0.02 0.03 0.04 0.05 0.07 0.11 0.16
0.01 0.00 0.00 0.00 0.00 0.00 0.00 0.00 0.00 0.00 0.00 0.00 0.00 0.00 0.00 0.00 0.01 0.01 0.01 0.02 0.02 0.01 0.00 0.00 0.00 0.00 0.00 0.00 0.00 0.01 0.04 0.05 0.04 0.03 0.03 0.02 0.02 0.02 0.02 0.02 0.03 0.04 0.06
0.00 0.00 0.00 0.00 0.00 0.00 0.00 0.00 0.00 0.00 0.00 0.00 0.00 0.00 0.00 0.00 0.01 0.01 0.02 0.03 0.07 0.07 0.04 0.01 0.00 0.00 0.00 0.00 0.01 0.02 0.04 0.05 0.05 0.05 0.04 0.03 0.02 0.02 0.02 0.02 0.02 0.02 0.02
0.00 0.00 0.00 0.00 0.00 0.00 0.00 0.00 0.00 0.00 0.00 0.00 0.01 0.01 0.02 0.02 0.02 0.03 0.04 0.05 0.07 0.12 0.10 0.03 0.01 0.00 0.01 0.01 0.02 0.04 0.05 0.04 0.06 0.06 0.05 0.04 0.04 0.03 0.03 0.03 0.03 0.02 0.02
0.00 0.00 0.00 0.00 0.00 0.00 0.00 0.00 0.00 0.00 0.01 0.01 0.02 0.02 0.03 0.04 0.05 0.05 0.05 0.05 0.06 0.09 0.10 0.04 0.02 0.02 0.04 0.06 0.06 0.09 0.09 0.09 0.09 0.13 0.12 0.11 0.08 0.06 0.05 0.05 0.05 0.05 0.04
0.00 0.00 0.00 0.00 0.00 0.00 0.00 0.01 0.01 0.02 0.03 0.03 0.03 0.04 0.04 0.04 0.06 0.05 0.05 0.04 0.05 0.07 0.09 0.08 0.05 0.05 0.07 0.08 0.09 0.09 0.06 0.05 0.08 0.13 0.13 0.10 0.08 0.07 0.06 0.06 0.05 0.04 0.03
0.01 0.01 0.01 0.01 0.01 0.01 0.01 0.01 0.02 0.02 0.02 0.03 0.03 0.03 0.03 0.03 0.04 0.03 0.04 0.05 0.06 0.07 0.11 0.14 0.11 0.10 0.08 0.06 0.08 0.06 0.07 0.11 0.10 0.11 0.10 0.07 0.05 0.04 0.03 0.03 0.03 0.02 0.02
0.02 0.02 0.02 0.02 0.02 0.01 0.01 0.01 0.01 0.01 0.01 0.01 0.01 0.01 0.02 0.02 0.03 0.05 0.06 0.07 0.09 0.11 0.13 0.14 0.11 0.08 0.06 0.05 0.07 0.07 0.08 0.12 0.12 0.09 0.07 0.04 0.03 0.02 0.02 0.03 0.04 0.03 0.01
0.03 0.02 0.02 0.01 0.01 0.00 0.00 0.00 0.00 0.00 0.00 0.00 0.01 0.01 0.01 0.02 0.04 0.07 0.08 0.09 0.12 0.13 0.13 0.13 0.10 0.07 0.05 0.04 0.06 0.08 0.12 0.12 0.09 0.06 0.04 0.03 0.04 0.04 0.06 0.07 0.07 0.06 0.03
0.01 0.01 0.00 0.00 0.00 0.00 0.00 0.00 0.00 0.00 0.00 0.01 0.01 0.02 0.01 0.01 0.03 0.05 0.07 0.10 0.13 0.14 0.14 0.12 0.10 0.08 0.05 0.06 0.11 0.16 0.21 0.18 0.12 0.06 0.07 0.06 0.05 0.06 0.08 0.11 0.14 0.11 0.06
0.00 0.00 0.00 0.00 0.00 0.00 0.00 0.00 0.00 0.00 0.01 0.02 0.03 0.03 0.02 0.01 0.03 0.04 0.05 0.06 0.06 0.07 0.11 0.15 0.15 0.12 0.12 0.15 0.24 0.27 0.25 0.22 0.18 0.14 0.17 0.14 0.08 0.09 0.10 0.17 0.26 0.23 0.17
0.00 0.00 0.00 0.00 0.01 0.01 0.00 0.00 0.00 0.00 0.01 0.02 0.03 0.03 0.04 0.03 0.04 0.05 0.04 0.03 0.03 0.04 0.10 0.16 0.22 0.23 0.26 0.28 0.33 0.35 0.32 0.28 0.21 0.17 0.19 0.19 0.10 0.11 0.15 0.24 0.38 0.41 0.32
0.00 0.00 0.00 0.01 0.01 0.02 0.00 0.00 0.00 0.00 0.01 0.01 0.01 0.02 0.03 0.04 0.05 0.07 0.05 0.04 0.04 0.06 0.13 0.27 0.37 0.40 0.41 0.41 0.40 0.37 0.34 0.30 0.26 0.21 0.19 0.22 0.18 0.15 0.22 0.34 0.41 0.54 0.47
0.01 0.00 0.00 0.01 0.02 0.03 0.01 0.00 0.01 0.01 0.01 0.01 0.01 0.01 0.03 0.06 0.08 0.08 0.05 0.06 0.08 0.11 0.24 0.42 0.50 0.50 0.44 0.41 0.40 0.37 0.33 0.30 0.30 0.30 0.24 0.25 0.26 0.21 0.27 0.43 0.49 0.43 0.38